Date String (YYYY-MM-DD hh:mm:ss) UTC,Instrument flags,absolute air pressure of the measurement (hPa),sample flow rate (lpm),inlet stack bypass flow (lpm),air temperature of the measurement (°C),ambient temperature measured by the external sensor (°C),aerosol sample conditioner tube jacket temperature (°C),OPC LED temperature (°C),internal box temperature (°C),relative humidity of the measurement (%),span deviation,mass concentration of particles derived from Lorenz-Mie calculation of OPC scattering (μg/m³),mass concentration of particles derived from Lorenz-Mie calculation of OPC scattering (μg/m³),mass concentration of particles derived from Lorenz-Mie calculation of OPC scattering (μg/m³)
DateTimeUTC,F1_M11,P_M11,Q1_M11,Q2_M11,T1_M11,T2_M11,T3_M11,T4_M11,T5_M11,U1_M11,ZSPAN_M11,X0_M11,X2_M11,X1_M11
2023-07-15 12:00:00,SystemResetWarning,0836.2,5.00,000.00,029.5,027.5,000.0,038.2,031.0,31.0,0000.0,0012.59,0006.56,0005.73
2023-07-15 12:01:00,SystemResetWarning,0836.2,5.00,000.00,029.6,027.7,000.0,038.2,031.0,31.0,0000.0,0012.58,0006.57,0005.74
2023-07-15 12:02:00,SystemResetWarning,0836.2,5.00,000.00,029.6,027.8,000.0,038.2,031.1,30.8,0000.0,0012.59,0006.57,0005.75
2023-07-15 12:03:00,SystemResetWarning,0836.2,5.00,000.00,029.6,027.9,000.0,038.2,031.1,30.9,0000.0,0012.48,0006.56,0005.78
2023-07-15 12:04:00,SystemResetWarning,0836.2,5.00,000.00,029.6,028.0,000.0,038.2,031.1,30.7,0000.0,0012.25,0006.56,0005.80
2023-07-15 12:05:00,SystemResetWarning,0836.2,5.00,000.00,029.6,028.0,000.0,038.2,031.1,30.7,0000.0,0012.37,0006.58,0005.81
2023-07-15 12:06:00,SystemResetWarning,0836.2,5.01,000.00,029.6,028.1,000.0,038.2,031.1,30.7,0000.0,0012.40,0006.58,0005.82
2023-07-15 12:07:00,SystemResetWarning,0836.2,5.00,000.00,029.6,028.1,000.0,038.2,031.2,30.7,0000.0,0012.35,0006.57,0005.82
2023-07-15 12:08:00,SystemResetWarning,0836.2,5.00,000.00,029.7,028.2,000.0,038.2,031.2,30.8,0000.0,0011.86,0006.58,0005.83
2023-07-15 12:09:00,SystemResetWarning,0836.2,5.00,000.00,029.7,028.2,000.0,038.2,031.2,30.8,0000.0,0011.60,0006.62,0005.85
2023-07-15 12:10:00,SystemResetWarning,0836.2,5.00,000.00,029.7,028.2,000.0,038.2,031.2,30.8,0000.0,0011.00,0006.66,0005.85
2023-07-15 12:11:00,SystemResetWarning,0836.3,5.01,000.00,029.7,028.3,000.0,038.2,031.3,30.7,0000.0,0011.35,0006.69,0005.84
2023-07-15 12:12:00,SystemResetWarning,0836.2,5.00,000.00,029.7,028.3,000.0,038.2,031.3,30.7,-001.1,0011.99,0006.72,0005.84
2023-07-15 12:13:00,SystemResetWarning,0836.2,4.99,000.00,029.7,028.3,000.0,038.2,031.3,30.6,-000.5,0011.88,0006.70,0005.83
2023-07-15 12:14:00,SystemResetWarning,0836.2,5.00,000.00,029.7,028.3,000.0,038.2,031.3,30.5,-002.1,0011.74,0006.67,0005.82
2023-07-15 12:15:00,SystemResetWarning,0836.3,4.99,000.00,029.8,028.4,000.0,038.2,031.3,30.6,-002.3,0011.99,0006.69,0005.81
2023-07-15 12:16:00,SystemResetWarning,0836.2,5.00,000.00,029.8,028.4,000.0,038.2,031.3,30.7,-001.7,0012.57,0006.74,0005.81
2023-07-15 12:17:00,SystemResetWarning,0836.3,5.00,000.00,029.8,028.4,000.0,038.3,031.4,30.8,-000.9,0013.28,0006.76,0005.81
2023-07-15 12:18:00,SystemResetWarning,0836.2,5.00,000.00,029.8,028.4,000.0,038.3,031.3,30.8,-000.7,0013.38,0006.73,0005.79
2023-07-15 12:19:00,SystemResetWarning,0836.3,5.00,000.00,029.8,028.5,000.0,038.3,031.4,30.8,-000.8,0013.32,0006.72,0005.79
2023-07-15 12:20:00,SystemResetWarning,0836.4,5.00,000.00,029.8,028.5,000.0,038.3,031.4,30.8,-000.6,0013.36,0006.70,0005.79
2023-07-15 12:21:00,SystemResetWarning,0836.4,5.00,000.00,029.8,028.5,000.0,038.3,031.4,30.7,-000.3,0013.58,0006.65,0005.79
2023-07-15 12:22:00,SystemResetWarning,0836.4,5.01,000.00,029.9,028.5,000.0,038.3,031.4,30.7,0000.3,0013.59,0006.70,0005.81
2023-07-15 12:23:00,SystemResetWarning,0836.3,5.00,000.00,029.9,028.5,000.0,038.3,031.4,30.6,0000.9,0012.89,0006.67,0005.81
2023-07-15 12:24:00,SystemResetWarning,0836.4,5.00,000.00,029.9,028.5,000.0,038.4,031.4,30.6,0001.3,0013.14,0006.66,0005.80
2023-07-15 12:25:00,SystemResetWarning,0836.4,5.00,000.00,029.9,028.6,000.0,038.4,031.5,30.6,0001.1,0013.26,0006.68,0005.79
2023-07-15 12:26:00,SystemResetWarning,0836.5,5.00,000.00,029.9,028.6,000.0,038.4,031.5,30.5,0001.5,0013.26,0006.66,0005.77
2023-07-15 12:27:00,SystemResetWarning,0836.5,5.00,000.00,029.9,028.6,000.0,038.4,031.5,30.5,0001.4,0012.73,0006.64,0005.77
2023-07-15 12:28:00,SystemResetWarning,0836.5,5.00,000.00,030.0,028.6,000.0,038.4,031.5,30.5,0000.9,0011.93,0006.62,0005.75
2023-07-15 12:29:00,SystemResetWarning,0836.5,5.00,000.00,030.0,028.7,000.0,038.4,031.5,30.5,0000.5,0011.77,0006.56,0005.74
2023-07-15 12:30:00,SystemResetWarning,0836.5,5.00,000.00,030.0,028.7,000.0,038.4,031.5,30.5,-000.1,0011.76,0006.51,0005.71
2023-07-15 12:31:00,SystemResetWarning,0836.5,5.00,000.00,030.0,028.7,000.0,038.5,031.5,30.3,-000.2,0012.08,0006.47,0005.69
2023-07-15 12:32:00,SystemResetWarning,0836.6,5.00,000.00,030.0,028.7,000.0,038.5,031.5,30.1,0000.1,0012.21,0006.40,0005.66
2023-07-15 12:33:00,SystemResetWarning,0836.5,5.00,000.00,030.0,028.7,000.0,038.5,031.6,30.0,0000.0,0011.70,0006.31,0005.62
2023-07-15 12:34:00,SystemResetWarning,0836.5,4.99,000.00,030.0,028.8,000.0,038.5,031.6,30.2,-000.4,0011.60,0006.27,0005.60
2023-07-15 12:35:00,SystemResetWarning,0836.6,5.00,000.00,030.0,028.8,000.0,038.5,031.6,30.2,-001.0,0011.64,0006.27,0005.58
2023-07-15 12:36:00,SystemResetWarning,0836.5,5.00,000.00,030.1,028.8,000.0,038.5,031.6,30.2,-001.0,0011.42,0006.26,0005.57
2023-07-15 12:37:00,SystemResetWarning,0836.5,4.99,000.00,030.1,028.0,000.0,038.5,031.6,30.2,-000.8,0011.32,0006.24,0005.56
2023-07-15 12:38:00,SystemResetWarning,0836.5,5.00,000.00,030.0,026.2,000.0,038.3,031.3,30.3,-000.3,0011.13,0006.23,0005.56
2023-07-15 12:39:00,SystemResetWarning,0836.5,5.00,000.00,029.9,025.6,000.0,038.3,031.1,30.5,-000.3,0011.24,0006.22,0005.56
2023-07-15 12:40:00,SystemResetWarning,0836.5,5.01,000.00,029.8,025.8,000.0,038.3,030.9,30.6,0000.0,0011.83,0006.22,0005.56
2023-07-15 12:41:00,SystemResetWarning,0836.5,5.00,000.00,029.7,026.1,000.0,038.3,030.9,30.8,0000.0,0011.72,0006.25,0005.57
2023-07-15 12:42:00,SystemResetWarning,0836.5,5.00,000.00,029.7,026.5,000.0,038.3,031.0,30.8,0000.0,0011.66,0006.27,0005.57
2023-07-15 12:43:00,SystemResetWarning,0836.6,5.00,000.00,029.7,026.9,000.0,038.3,031.0,30.9,0000.0,0011.09,0006.28,0005.56
2023-07-15 12:44:00,SystemResetWarning,0836.7,4.99,000.00,029.7,027.2,000.0,038.3,031.1,31.2,-000.4,0011.12,0006.29,0005.56
2023-07-15 12:45:00,SystemResetWarning,0836.6,5.00,000.00,029.7,027.4,000.0,038.3,031.1,31.6,0000.0,0011.10,0006.27,0005.54
2023-07-15 12:46:00,SystemResetWarning,0836.6,5.00,000.00,029.7,027.7,000.0,038.3,031.2,32.1,-002.2,0011.01,0006.26,0005.54
2023-07-15 12:47:00,SystemResetWarning,0836.6,5.00,000.00,029.7,027.8,000.0,038.3,031.2,31.8,-002.3,0011.83,0006.24,0005.53
2023-07-15 12:48:00,SystemResetWarning,0836.7,5.01,000.00,029.7,028.0,000.0,038.3,031.2,32.1,-002.6,0012.50,0006.24,0005.52
2023-07-15 12:49:00,SystemResetWarning,0836.6,5.00,000.00,029.7,028.1,000.0,038.3,031.2,32.0,-002.6,0012.97,0006.24,0005.52
2023-07-15 12:50:00,SystemResetWarning,0836.6,5.00,000.00,029.7,028.2,000.0,038.3,031.3,32.2,-002.7,0013.89,0006.22,0005.51
2023-07-15 12:51:00,SystemResetWarning,0836.6,4.99,000.00,029.7,028.3,000.0,038.3,031.3,32.0,-001.9,0013.56,0006.22,0005.49
2023-07-15 12:52:00,SystemResetWarning,0836.6,5.00,000.00,029.8,028.4,000.0,038.3,031.3,32.3,-001.7,0013.53,0006.20,0005.47
2023-07-15 12:53:00,SystemResetWarning,0836.6,5.00,000.00,029.8,028.4,000.0,038.3,031.4,32.1,-001.9,0013.95,0006.20,0005.47
2023-07-15 12:54:00,SystemResetWarning,0836.7,5.00,000.00,029.8,028.5,000.0,038.3,031.4,31.9,-002.2,0014.35,0006.23,0005.49
2023-07-15 12:55:00,SystemResetWarning,0836.7,5.00,000.00,029.8,028.5,000.0,038.3,031.4,32.0,-002.0,0014.49,0006.29,0005.53
2023-07-15 12:56:00,SystemResetWarning,0836.6,5.00,000.00,029.8,028.6,000.0,038.3,031.4,31.6,-001.8,0014.79,0006.32,0005.56
2023-07-15 12:57:00,SystemResetWarning,0836.6,5.00,000.00,029.9,028.6,000.0,038.3,031.4,31.5,-001.5,0014.94,0006.33,0005.57
2023-07-15 12:58:00,SystemResetWarning,0836.6,5.01,000.00,029.9,028.6,000.0,038.4,031.5,31.5,-001.4,0014.30,0006.39,0005.58
2023-07-15 12:59:00,SystemResetWarning,0836.6,5.00,000.00,029.9,028.7,000.0,038.4,031.5,31.7,-001.5,0013.86,0006.45,0005.60
